This is the latest recevied weather packets stored in our database for station/object SQ9RHX-13. If no packets are shown the sender has not sent any weather packets the latest 10 day(s).
| Time | Temp. | Humidity | Pressure | Rain* | Wind** | Luminosity | Snow |
|---|---|---|---|---|---|---|---|
| 1777987504 | 27.22° C | 32% | 1009.7 hPa | 0 mm | - | 426 W/m² | - |
| 1777987205 | 27.78° C | 32% | 1009.6 hPa | 0 mm | - | 428 W/m² | - |
| 1777986904 | 27.78° C | 31% | 1009.7 hPa | 0 mm | - | 505 W/m² | - |
| 1777986605 | 27.78° C | 30% | 1009.8 hPa | 0 mm | - | 466 W/m² | - |
| 1777986305 | 27.78° C | 31% | 1009.8 hPa | 0 mm | - | 443 W/m² | - |
| 1777986003 | 27.78° C | 30% | 1009.8 hPa | 0 mm | - | 440 W/m² | - |
| 1777985704 | 28.89° C | 29% | 1009.8 hPa | 0 mm | - | 504 W/m² | - |
| 1777985404 | 28.89° C | 31% | 1010 hPa | 0 mm | - | 534 W/m² | - |
| 1777985103 | 28.89° C | 31% | 1009.9 hPa | 0 mm | - | 548 W/m² | - |
| 1777984805 | 28.89° C | 29% | 1009.9 hPa | 0 mm | - | 519 W/m² | - |
| 1777984505 | 28.89° C | 29% | 1010 hPa | 0 mm | - | 548 W/m² | - |
| 1777984205 | 28.89° C | 30% | 1010 hPa | 0 mm | - | 557 W/m² | - |
| 1777983904 | 27.78° C | 31% | 1010.2 hPa | 0 mm | - | 579 W/m² | - |
| 1777983603 | 27.78° C | 30% | 1010.2 hPa | 0 mm | - | 579 W/m² | - |
| 1777983304 | 27.22° C | 31% | 1010.3 hPa | 0 mm | - | 572 W/m² | - |
| 1777983006 | 27.22° C | 31% | 1010.4 hPa | 0 mm | - | 592 W/m² | - |
| 1777982703 | 27.78° C | 33% | 1010.5 hPa | 0 mm | - | 599 W/m² | - |
| 1777982403 | 27.22° C | 33% | 1010.4 hPa | 0 mm | - | 614 W/m² | - |
| 1777982104 | 27.78° C | 32% | 1010.5 hPa | 0 mm | - | 610 W/m² | - |
| 1777981803 | 27.78° C | 32% | 1010.6 hPa | 0 mm | - | 630 W/m² | - |
| 1777981505 | 27.78° C | 31% | 1010.6 hPa | 0 mm | - | 618 W/m² | - |
| 1777981204 | 27.22° C | 33% | 1010.6 hPa | 0 mm | - | 645 W/m² | - |
| 1777980902 | 27.78° C | 31% | 1010.6 hPa | 0 mm | - | 676 W/m² | - |
| 1777980604 | 27.78° C | 30% | 1010.6 hPa | 0 mm | - | 665 W/m² | - |
| 1777980303 | 27.78° C | 32% | 1010.8 hPa | 0 mm | - | 656 W/m² | - |
* Rain latest hour (hover to see other rain measurements)
** Current wind speed in m/s (hover to see current wind gust speed)